Location: Barcelona
(41.3830°N, 2.1830°E)
Time: 21:14:15
(UTC+01:00)

ISS - Pass Details

Date: 27 February 2021
Orbit: 417 x 422 km, 51.6° (Epoch: 26 February)

Event Time Altitude Azimuth Distance (km) Brightness Sun altitude
Exits shadow 04:52:10 13° 46° (NE) 1,337 -0.5 -29.9°
Drops below altitude 10° 04:52:34 10° 48° (NE) 1,497 -0.2 -29.9°
Sets 04:54:42 0° 53° (NE) 2,364 1.1 -29.5°
